VK2ADG-1 Weather Reports


time (UTC)temp
C
wind
direction
speed
KPH
gust
KPH
rain 1hr
cm
rain 24hr
cm
rain mn
cm
humidity
%
barometer
mb
20260504081028 11 330 4.8 9.7 0.00 0.15 0.15 94 1015.3
20260504050023 16 292 4.8 12.9 0.05 0.15 0.15 88 1012.8
20260504045021 17 343 6.4 16.1 0.05 0.13 0.13 80 1012.8
20260504044018 18 357 6.4 14.5 0.00 0.08 0.08 75 1012.5
20260504043036 18 335 6.4 20.9 0.00 0.08 0.08 74 1012.7
20260504042054 18 334 4.8 14.5 0.00 0.08 0.08 74 1012.8
20260504041032 19 348 4.8 12.9 0.00 0.08 0.08 73 1012.8
20260504040030 18 350 4.8 16.1 0.00 0.08 0.08 75 1012.7
20260504035027 18 342 9.7 24.1 0.00 0.08 0.08 74 1012.9
20260504034025 18 350 6.4 16.1 0.00 0.08 0.08 73 1012.8
20260504033102 18 347 6.4 14.5 0.00 0.08 0.08 72 1012.8
20260504032019 18 347 6.4 11.3 0.00 0.08 0.08 73 1013.2
20260504031018 18 348 8.0 22.5 0.00 0.08 0.08 73 1013.3
20260504030035 19 350 6.4 16.1 0.00 0.08 0.08 71 1013.3
20260504025033 18 348 8.0 14.5 0.00 0.08 0.08 71 1013.5
20260504024031 19 351 11.3 22.5 0.00 0.08 0.08 70 1013.5
20260504023029 20 334 8.0 14.5 0.00 0.08 0.08 69 1013.6
20260504022026 18 339 8.0 17.7 0.00 0.08 0.08 73 1013.7
20260504021043 18 346 12.9 25.7 0.00 0.08 0.08 72 1014.0
20260504020021 18 346 9.7 20.9 0.00 0.08 0.08 74 1014.2
20260504015018 18 340 8.0 17.7 0.00 0.08 0.08 76 1014.5
20260504014057 17 330 4.8 8.0 0.00 0.08 0.08 79 1014.5
20260504013034 17 332 4.8 9.7 0.00 0.08 0.08 82 1014.9
20260504012031 16 339 6.4 14.5 0.00 0.08 0.08 82 1014.9
20260504011029 16 339 6.4 16.1 0.00 0.08 0.08 81 1015.1
20260504010026 17 323 4.8 11.3 0.00 0.08 0.08 82 1015.0
20260504005024 16 330 3.2 9.7 0.00 0.08 0.08 82 1015.1
20260504004022 16 328 4.8 9.7 0.00 0.08 0.08 83 1014.9
20260504003019 16 344 4.8 9.7 0.00 0.08 0.08 84 1015.1
20260504002017 16 335 6.4 11.3 0.03 0.08 0.08 85 1015.3
20260504001035 16 346 6.4 16.1 0.05 0.08 0.08 84 1015.5
20260504000114 16 346 6.4 9.7 0.05 0.08 0.08 85 1015.4
20260503235030 15 343 6.4 9.7 0.05 0.08 0.08 86 1015.7
20260503234027 15 348 8.0 16.1 0.05 0.08 0.08 87 1015.6
20260503233026 15 345 6.4 14.5 0.05 0.08 0.08 87 1015.9
20260503232023 16 347 6.4 9.7 0.03 0.05 0.05 86 1015.7
20260503231020 15 344 8.0 14.5 0.00 0.05 0.05 87 1016.0
20260503230018 15 344 6.4 11.3 0.00 0.05 0.05 88 1016.1
20260503225036 15 343 6.4 12.9 0.03 0.05 0.05 89 1016.1
20260503224034 15 329 6.4 12.9 0.00 0.03 0.03 87 1016.1
20260503223032 16 329 6.4 14.5 0.00 0.03 0.03 84 1015.9
20260503222029 16 337 6.4 12.9 0.00 0.03 0.03 84 1015.7
20260503221027 16 331 6.4 14.5 0.00 0.03 0.03 84 1015.7
20260503220025 16 330 6.4 14.5 0.00 0.03 0.03 85 1015.6
20260503215022 16 334 8.0 14.5 0.00 0.03 0.03 85 1015.6
20260503214040 16 330 8.0 12.9 0.00 0.03 0.03 85 1015.5
20260503213039 15 332 6.4 9.7 0.00 0.03 0.03 86 1015.4
20260503212158 15 327 8.0 16.1 0.00 0.03 0.03 86 1015.5
20260503211033 15 328 6.4 9.7 0.00 0.03 0.03 88 1015.4
20260503210031 15 337 3.2 6.4 0.00 0.03 0.03 88 1015.2
20260503205027 15 328 4.8 8.0 0.00 0.03 0.03 89 1015.2
20260503204025 15 341 4.8 9.7 0.00 0.03 0.03 89 1015.0
20260503203104 15 344 4.8 9.7 0.00 0.03 0.03 89 1015.0
20260503202021 15 337 4.8 6.4 0.00 0.03 0.03 90 1015.1
20260503201018 15 334 4.8 8.0 0.00 0.03 0.03 90 1015.1
20260503200016 15 321 4.8 9.7 0.00 0.03 0.03 90 1014.9
20260503195055 15 320 4.8 9.7 0.00 0.03 0.03 91 1014.6
20260503194032 14 319 4.8 8.0 0.00 0.03 0.03 93 1014.6
20260503193029 14 326 4.8 8.0 0.00 0.03 0.03 94 1014.7
20260503192027 14 326 4.8 6.4 0.00 0.03 0.03 94 1014.9
20260503191045 13 333 4.8 6.4 0.00 0.00 0.00 96 1015.0
20260503190022 13 330 3.2 6.4 0.00 0.00 0.00 96 1015.2
20260503185019 14 316 4.8 6.4 0.00 0.00 0.00 95 1015.4
20260503184017 14 324 4.8 6.4 0.00 0.00 0.00 95 1015.5
20260503183035 14 331 4.8 6.4 0.00 0.00 0.00 95 1015.5
20260503182032 14 327 3.2 6.4 0.00 0.00 0.00 95 1015.5
20260503181031 14 323 4.8 6.4 0.00 0.00 0.00 96 1015.6
20260503180028 14 323 3.2 6.4 0.00 0.00 0.00 95 1015.6
20260503175025 14 322 3.2 6.4 0.00 0.00 0.00 95 1015.7
20260503174023 14 317 3.2 4.8 0.00 0.00 0.00 95 1015.8
20260503173021 14 322 4.8 6.4 0.00 0.00 0.00 95 1015.8
20260503172019 14 314 4.8 6.4 0.00 0.00 0.00 94 1015.9
20260503171015 14 313 4.8 8.0 0.00 0.00 0.00 94 1016.1
20260503131020 15 331 4.8 6.4 0.00 0.00 0.00 88 1017.1